TimeMST,TemperatureF,Dew PointF,Humidity,Sea Level PressureIn,VisibilityMPH,Wind Direction,Wind SpeedMPH,Gust SpeedMPH,PrecipitationIn,Events,Conditions,WindDirDegrees,DateUTC
12:55 AM,63.1,25.0,23,29.76,10.0,ESE,8.1,-,N/A,,Clear,110,2012-10-17 07:55:00
1:55 AM,61.3,24.8,25,29.77,10.0,ESE,6.9,-,N/A,,Clear,110,2012-10-17 08:55:00
2:55 AM,61.2,29.1,30,29.78,10.0,ESE,6.9,-,N/A,,Clear,120,2012-10-17 09:55:00
3:55 AM,62.2,30.9,31,29.77,10.0,SE,10.4,-,N/A,,Clear,130,2012-10-17 10:55:00
4:55 AM,60.1,29.5,31,29.80,10.0,SE,9.2,-,N/A,,Clear,130,2012-10-17 11:55:00
5:55 AM,59.5,30.7,34,29.82,10.0,SE,10.4,-,N/A,,Clear,130,2012-10-17 12:55:00
6:55 AM,60.3,31.3,34,29.83,10.0,SE,10.4,-,N/A,,Clear,130,2012-10-17 13:55:00
7:55 AM,66.0,33.3,30,29.84,10.0,ESE,8.1,-,N/A,,Clear,120,2012-10-17 14:55:00
8:55 AM,73.2,34.9,25,29.86,10.0,SE,4.6,-,N/A,,Clear,130,2012-10-17 15:55:00
9:55 AM,-9999,-9999,N/A,-9999,-9999.0,North,-9999.0,-,N/A,,Unknown,0,2012-10-17 16:55:00
10:55 AM,80.6,39.2,23,29.83,10.0,Calm,Calm,-,N/A,,Partly Cloudy,0,2012-10-17 17:55:00
11:55 AM,83.3,36.1,19,29.81,10.0,WNW,3.5,-,N/A,,Clear,290,2012-10-17 18:55:00
12:04 PM,84.2,35.6,18,29.80,10.0,Variable,5.8,-,N/A,Rain,Light Rain,0,2012-10-17 19:04:00
12:05 PM,84.2,35.6,18,29.80,10.0,Variable,4.6,-,N/A,,Clear,0,2012-10-17 19:05:00
12:55 PM,84.9,33.3,16,29.78,10.0,Variable,3.5,-,0.00,,Clear,0,2012-10-17 19:55:00
1:55 PM,86.0,32.0,14,29.76,10.0,Variable,5.8,-,N/A,,Clear,0,2012-10-17 20:55:00
2:55 PM,87.6,37.0,17,29.75,10.0,NNW,10.4,-,N/A,,Clear,330,2012-10-17 21:55:00
3:55 PM,87.1,34.7,15,29.75,10.0,NNW,12.7,-,N/A,,Clear,330,2012-10-17 22:55:00
4:55 PM,85.8,35.2,16,29.76,10.0,NNW,9.2,-,N/A,,Clear,330,2012-10-17 23:55:00
5:55 PM,82.4,35.6,19,29.78,10.0,NW,6.9,-,N/A,,Clear,320,2012-10-18 00:55:00
6:55 PM,79.3,35.4,20,29.81,10.0,NW,4.6,-,N/A,,Clear,320,2012-10-18 01:55:00
7:55 PM,76.1,36.1,23,29.83,10.0,West,6.9,-,N/A,,Clear,260,2012-10-18 02:55:00
8:55 PM,73.6,36.7,26,29.84,10.0,SSW,4.6,-,N/A,,Clear,210,2012-10-18 03:55:00
9:55 PM,70.9,40.3,33,29.99,10.0,SSW,5.8,-,N/A,,Clear,210,2012-10-18 04:55:00
10:55 PM,69.6,42.6,38,30.00,10.0,SW,5.8,-,N/A,,Clear,230,2012-10-18 05:55:00
11:55 PM,66.9,40.3,38,29.87,10.0,SSE,4.6,-,N/A,,Clear,150,2012-10-18 06:55:00